Hourly Weather Roundup
Issued by NWS Central Illinois

Home | Current Version | Previous Version | Text Only | Print | Product List | Glossary Off
Versions: 1 2 3 4 5 6 7 8 9 10 11 12 13 14 15 16 17 18 19 20 21 22 23 24 25 26 27 28 29 30 31 32 33 34 35 36 37 38 39 40 41 42 43 44 45 46 47 48 49 50

000
NZUS43 KILX 271410
HWRILX

AREA WEATHER ROUNDUP
NATIONAL WEATHER SERVICE, LINCOLN IL
900 AM CDT WED MAY 27 2015


CITY           SKY/WX    TMP DP  RH WIND       PRES   REMARKS
BLOOMINGTON    CLOUDY    68  65  90 W13       30.03R
CHAMPAIGN      CLOUDY    70  64  81 SW15      30.03R
DANVILLE       CLOUDY    72  65  80 SW10      30.00S
DECATUR        CLOUDY    70  64  81 SW14      30.03R
EFFINGHAM      CLOUDY    71  63  76 SW16      30.09R
FLORA          PTSUNNY   69  64  83 SW10      30.09R
GALESBURG      MOSUNNY   67  60  77 W10       30.00R
JACKSONVILLE   CLOUDY    71  65  83 SW13G18   30.04R
LACON          MOSUNNY   68  58  70 SW6       29.98S
LAWRENCEVILLE  PTSUNNY   74  64  71 S9        30.08F
LITCHFIELD     CLOUDY    68  62  83 SW15      30.07F
$$


CITY           SKY/WX    TMP DP  RH WIND       PRES   REMARKS
LINCOLN        CLOUDY    71  64  78 SW6       29.99S
MACOMB         PTSUNNY   68  62  81 W10       30.03R
MATTOON        CLOUDY    70  64  81 SW10G18   30.05R
MT CARMEL AP   PTSUNNY   75  63  64 SW10      30.08S
OLNEY-NOBLE AP CLOUDY    70  64  83 SW7       30.10R
PARIS          PTSUNNY   75  65  70 SW13      30.05S
PEORIA         PTSUNNY   70  61  73 SW7       30.00R
PONTIAC        PTSUNNY   71  64  77 W17       30.00R
RANTOUL        PTSUNNY   70  65  83 SW16      30.02R
ROBINSON       PTSUNNY   74  63  68 SW9       30.08S
SPRINGFIELD    CLOUDY    70  64  81 SW15G23   30.04R
TAYLORVILLE    CLOUDY    68  63  83 SW15G22   30.05R
$$

...REGIONAL REPORTS...


CITY           SKY/WX    TMP DP  RH WIND       PRES   REMARKS
CHICAGO O`HARE PTSUNNY   67  58  72 W14G23    29.94S
KANKAKEE       PTSUNNY   71  64  78 W18G24    29.99S
MOLINE         PTSUNNY   67  59  75 W12       29.98R
MOUNT VERNON   CLOUDY    66  61  82 SW10      30.12R
PITTSFIELD     CLOUDY    69  63  81 SW8G16    30.05S
QUINCY         CLOUDY    67  59  75 W10       30.04R
ROCKFORD       PTSUNNY   66  59  78 W12G28    29.95S
$$


CITY           SKY/WX    TMP DP  RH WIND       PRES   REMARKS
BURLINGTON     MOSUNNY   65  59  81 NW9       30.00R
CEDAR RAPIDS   CLOUDY    62  59  90 W14       29.99R
DES MOINES     MOSUNNY   66  57  72 NW8       30.02R
KIRKSVILLE     SUNNY     67  59  75 W6        30.06R
OTTUMWA        MOSUNNY   65  58  78 W8        30.02R
ST LOUIS       CLOUDY    70  60  70 SW13      30.06F
$$


CITY           SKY/WX    TMP DP  RH WIND       PRES   REMARKS
TERRE HAUTE    MOSUNNY   72  64  76 SW14      30.06F
EVANSVILLE     MOSUNNY   73  65  75 S10       30.11S
INDIANAPOLIS   MOSUNNY   73  62  68 SW16      30.06S
LAFAYETTE      PTSUNNY   72  64  76 SW9       30.02S
MADISON        CLOUDY    63  57  81 VRB7      29.91R
MILWAUKEE      PTSUNNY   65  58  78 SW13      29.91R
$$




USA.gov is the U.S. government's official web portal to all federal, state and local government web resources and services.